GPS BIII-6 (PRN 28)

Last updated on Mon Oct 27 2025 00:03:24 GMT+0000 (Coordinated Universal Time)

1 55268U 23009A 25299.36612330 .00000045 00000+0 00000+0 0 9998 2 55268 55.0995 157.7067 0003598 359.7404 178.2285 2.00559686 20557
UTC large
Height (km)
Speed (km/s)
/
Latitude / Longitude
Inclination (degrees)
Orbital Period (minutes)
Azimuth
Elevation
Range (km)
Doppler Factor

Next 0 passes for location: London (51.5072 / 0.1276)

Sorry there are no passes over London.